User: anonymous   Login
Location: Unspecified
(0.0000°N, 0.0000°E)
Time: 19:06:08
(UTC+00:00)
Language:

COSMOS 2429 - Orbit

View from above orbital plane
View from above orbital plane
View from above satellite
View from above satellite

Ground track
Ground track

The orbit data is extracted from the following two-line orbital elements,

1 32052U 07038A   19341.48407757  .00000043  00000-0  29171-4 0  9991
2 32052  82.9787 162.3095 0039450  52.0975 308.3737 13.74921302614172
Epoch (UTC): 07 December 2019 11:37:04
Eccentricity: 0.0039450
inclination: 82.9787°
perigee height: 953 km
apogee height: 1011 km
right ascension of ascending node: 162.3095°
argument of perigee: 52.0975°
revolutions per day: 13.74921302
mean anomaly at epoch: 308.3737°
orbit number at epoch: 61417

The dashed part of the orbit path shows where the satellite is in the earth's shadow,  

DLR